Regional Weather Roundup
Issued by NWS

Home | Current Version | Previous Version | Graphics & Text | Print | Product List | Glossary On
Versions: 1 2 3 4 5 6 7 8 9 10 11 12 13 14 15 16 17 18 19 20 21 22 23 24 25 26 27 28 29 30 31 32 33 34 35 36 37 38 39 40 41 42 43 44 45 46 47 48 49 50
000
ASUS43 KOAX 140710
RWRNE

WEATHER ROUNDUP FOR NEBRASKA
NATIONAL WEATHER SERVICE OMAHA NE
200 AM CDT MON JUL 14 2014

NOTES: SATELLITE DATA IS BEING USED TO AUGMENT CLOUD COVER ABOVE
       12000 FEET.
       "FAIR" INDICATES FEW OR NO CLOUDS BELOW 12,000 FEET WITH NO
       SIGNIFICANT WEATHER AND/OR OBSTRUCTIONS TO VISIBILITY.

  * THESE STATIONS DO NOT REPORT WEATHER SUCH AS RAIN...SNOW OR FOG.

NEZ001>004-019>022-054>056-140800-
NEBRASKA PANHANDLE

CITY           SKY/WX    TMP DP  RH WIND       PRES   REMARKS
SCOTTSBLUFF    CLOUDY    70  57  63 NE8       30.18S
ALLIANCE       PTCLDY    62  57  83 N8        30.18S
CHADRON        CLEAR     60  54  80 CALM      30.19R
KIMBALL        PTCLDY    63  59  87 SW13      30.23F
SIDNEY         PTCLDY    61  57  87 SW7       30.21S
$$

NEZ057>060-069>072-079>082-140800-
SOUTHWEST NEBRASKA

CITY           SKY/WX    TMP DP  RH WIND       PRES   REMARKS
NORTH PLATTE   CLEAR     64  61  90 NW5       30.09F
IMPERIAL       CLEAR     63  59  87 W7        30.14F
LEXINGTON      CLEAR     66  62  89 W7        30.06F
MCCOOK         CLEAR     66  62  87 W8        30.10F
OGALLALA       CLEAR     59  58  97 W6        30.13F
$$

NEZ005>010-023>029-035>040-094-140800-
NORTH CENTRAL NEBRASKA

CITY           SKY/WX    TMP DP  RH WIND       PRES   REMARKS
VALENTINE      MOCLDY    67  56  67 NE6       30.13S
AINSWORTH      MOCLDY    64  57  79 NE6       30.12F
BROKEN BOW     CLOUDY    66  61  84 NE13      30.07S
O`NEILL        RAIN      65  57  75 N7        30.11R
ORD            LGT RAIN  65  61  87 VRB3      30.07F
THEDFORD       MOCLDY    64  60  87 N12       30.13F
$$

NEZ041-046>049-061>064-073>077-083>087-140800-
SOUTH CENTRAL NEBRASKA

CITY           SKY/WX    TMP DP  RH WIND       PRES   REMARKS
GRAND ISLAND   LGT RAIN  71  65  81 N6        30.03F
AURORA         MOCLDY    67  67  97 W3        30.02S
HASTINGS       CLEAR     73  64  73 SW5       30.02F
HEBRON         CLEAR     70  67  90 CALM      30.00F
HOLDREGE       CLEAR     69  62  79 W8        30.06F
KEARNEY *      PTCLDY    73  63  68 W9        30.04F
YORK           MOCLDY    66  66 100 W5        30.02S
$$

NEZ011>018-030>034-042>045-140800-
NORTHEAST NEBRASKA

CITY           SKY/WX    TMP DP  RH WIND       PRES   REMARKS
NORFOLK        MOCLDY    69  55  60 N12       30.04R
ALBION         CLOUDY    67  60  76 CALM      30.07R
BLAIR          CLEAR     71  62  72 N9        29.99R
FREMONT        MOCLDY    72  66  82 N6        30.01R
TEKAMAH        MOCLDY    70  63  78 N5        29.98S
WAYNE          CLOUDY    66  64  91 CALM      30.03S
$$

NEZ050>053-065>068-078-088>093-140800-
SOUTHEAST NEBRASKA

CITY           SKY/WX    TMP DP  RH WIND       PRES   REMARKS
LINCOLN        CLEAR     72  65  78 NW5       29.99F
OMAHA EPPLEY   PTCLDY    72  67  84 NW9       29.97S
BEATRICE       CLEAR     67  65  94 CALM      29.99F
FALLS CITY     CLEAR     69  68  96 CALM      29.95F
NEBRASKA CITY  CLEAR     68  68 100 W5        29.97F
PLATTSMOUTH    CLEAR     71  66  86 SW6       29.97F
$$

NEZ044-045-051>053-067-140800-
OMAHA AREA

CITY           SKY/WX    TMP DP  RH WIND       PRES   REMARKS
OMAHA EPPLEY   PTCLDY    72  67  84 NW9       29.97S
BLAIR          CLEAR     71  62  72 N9        29.99R
FREMONT        MOCLDY    72  66  82 N6        30.01R
MILLARD        CLEAR     70  68  92 NW5       29.96F
OFFUTT AFB     CLEAR     65  65 100 W6        29.96S
PLATTSMOUTH    CLEAR     71  66  86 SW6       29.97F
WAHOO          FAIR      70  65  86 NW8       29.99R
$$


USA.gov is the U.S. government's official web portal to all federal, state and local government web resources and services.